This demonstration page uses our WeatherBlox Daily Observations layout. Learn more.

Left ArrowRight Arrow

39.51506, -84.39828

Hourly Observations for June 18, 2017

Temp ( °F °C ) Dew Point ( °F °C ) Humidity (%) Winds ( mph kmh ) Pressure ( in mb ) Visibility ( mi km ) Precip ( " mm )
12:15 am 00:15 Partly Cloudy 80 26.4 65 18.4 62 62 SW 6 9 29.74 1007 10 16 N/A
12:35 am 00:35 Clear 80 26.5 64 17.8 59 59 S 7 11 29.71 1006 10 16 N/A
12:55 am 00:55 Clear 80 26.5 63 17.4 57 57 S 8 13 29.71 1006 10 16 N/A
1:15 am 01:15 Clear 80 26.5 65 18.1 60 60 S 6 9 29.71 1006 10 16 N/A
1:35 am 01:35 Clear 79 25.9 64 17.8 61 61 SSW 3 6 29.71 1006 10 16 N/A
1:55 am 01:55 Clear 77 25.1 65 18.1 65 65 S 5 7 29.74 1007 10 16 N/A
2:15 am 02:15 Clear 74 23.6 66 18.9 75 75 SSW 3 6 29.77 1008 10 16 N/A
2:35 am 02:35 Partly Cloudy 74 23.6 66 18.7 74 74 N N/A 29.77 1008 10 16 N/A
2:55 am 02:55 Mostly Cloudy 74 23.6 66 18.7 74 74 SW 3 6 29.77 1008 10 16 N/A
3:15 am 03:15 Cloudy 77 25.1 66 18.8 68 68 SSW 6 9 29.80 1009 10 16 N/A
3:35 am 03:35 Cloudy 77 25.1 64 17.9 64 64 SW 7 11 29.80 1009 10 16 N/A
3:55 am 03:55 Cloudy 77 25.1 64 18 65 65 SW 5 7 29.80 1009 10 16 N/A
4:15 am 04:15 Cloudy with Rain 77 25.1 65 18.4 66 66 SW 5 7 29.77 1008 10 16 N/A
4:35 am 04:35 Cloudy with Light Rain 75 23.8 65 18.3 71 71 SSW 3 6 29.77 1008 7 11 N/A
4:55 am 04:55 Mostly Cloudy 74 23.6 67 19.2 76 76 S 3 6 29.77 1008 10 16 N/A
5:15 am 05:15 Mostly Cloudy 74 23.6 67 19.3 77 77 N N/A 29.77 1008 10 16 N/A
5:35 am 05:35 Mostly Cloudy 74 23.6 68 20.1 81 81 N N/A 29.77 1008 10 16 N/A
5:55 am 05:55 Cloudy with Light Rain 74 23.6 68 19.8 79 79 S 7 11 29.80 1009 5 8 N/A
6:15 am 06:15 Cloudy 74 23.6 68 20 80 80 WSW 8 13 29.80 1009 10 16 N/A
6:35 am 06:35 Cloudy with Light Rain 74 23.6 69 20.3 82 82 S 8 13 29.80 1009 7 11 N/A
6:55 am 06:55 Mostly Cloudy 74 23.6 68 20.1 81 81 S 6 9 29.80 1009 10 16 N/A
7:15 am 07:15 Partly Cloudy 74 23.6 68 20 80 80 S 7 11 29.77 1008 10 16 N/A
7:35 am 07:35 Partly Cloudy 74 23.6 68 19.9 80 80 SSE 8 13 29.77 1008 10 16 N/A
7:55 am 07:55 Partly Cloudy 74 23.6 68 19.9 80 80 S 13 20 29.77 1008 10 16 N/A
8:15 am 08:15 Sunny 74 23.6 68 19.8 79 79 S 13 20 29.77 1008 10 16 N/A
8:35 am 08:35 Sunny 74 23.6 67 19.6 78 78 S 13 20 29.74 1007 10 16 N/A
8:55 am 08:55 Partly Cloudy with Light Rain 74 23.6 67 19.7 79 79 S 10 17 29.71 1006 10 16 N/A
9:15 am 09:15 Mostly Cloudy with Drizzle 74 23.6 68 20 80 80 S 9 15 29.71 1006 10 16 N/A
9:35 am 09:35 Partly Cloudy 74 23.6 68 19.8 79 79 S 12 19 29.71 1006 10 16 N/A
9:55 am 09:55 Sunny 77 25.1 70 21.2 79 79 SSW 9 15 29.71 1006 10 16 N/A
10:15 am 10:15 Partly Cloudy 80 26.4 71 21.9 76 76 SW 13 20 29.68 1005 10 16 N/A
10:35 am 10:35 Mostly Cloudy 77 25.1 69 20.7 77 77 WSW 15 24 29.74 1007 10 16 N/A
10:55 am 10:55 Cloudy 78 25.7 70 21.1 76 76 SW 12 19 29.71 1006 10 16 N/A
11:15 am 11:15 Cloudy 80 26.5 70 21.2 73 73 SW 13 20 29.71 1006 10 16 N/A
11:35 am 11:35 Cloudy 80 26.5 70 21.2 73 73 WSW 8 13 29.71 1006 10 16 N/A
11:55 am 11:55 Mostly Cloudy 81 27.1 70 21.1 70 70 SW 12 19 29.71 1006 10 16 N/A
12:15 pm 12:15 Mostly Cloudy 81 27.4 70 21.1 69 69 SW 12 19 29.71 1006 10 16 N/A
12:35 pm 12:35 Mostly Cloudy 83 28.1 69 20.7 64 64 SW 15 24 29.71 1006 10 16 N/A
12:55 pm 12:55 Mostly Cloudy 82 28 67 19.4 60 60 WSW 16 26 29.74 1007 10 16 N/A
1:15 pm 13:15 Mostly Cloudy 82 28 67 19.5 60 60 WSW 10 17 29.74 1007 10 16 N/A
1:35 pm 13:35 Cloudy 81 27.2 66 18.9 61 61 WSW 10 17 29.74 1007 10 16 N/A
1:55 pm 13:55 Mostly Cloudy 83 28.4 67 19.7 59 59 WSW 14 22 29.74 1007 10 16 N/A
2:15 pm 14:15 Partly Cloudy 83 28.1 67 19.5 60 60 WSW 9 15 29.71 1006 10 16 N/A
2:35 pm 14:35 Mostly Cloudy 82 28 66 19 58 58 W 7 11 29.71 1006 10 16 N/A
2:55 pm 14:55 Cloudy 82 27.6 66 18.9 59 59 WSW 10 17 29.71 1006 10 16 N/A
3:15 pm 15:15 Cloudy 80 26.6 64 18 59 59 WSW 10 17 29.71 1006 10 16 N/A
3:35 pm 15:35 Cloudy 81 27.2 65 18.6 59 59 SW 10 17 29.71 1006 10 16 N/A
3:55 pm 15:55 Mostly Cloudy 82 28 67 19.2 59 59 W 12 19 29.71 1006 10 16 N/A
4:15 pm 16:15 Mostly Cloudy 81 27.2 65 18.6 59 59 W 7 11 29.71 1006 10 16 N/A
4:35 pm 16:35 Mostly Cloudy 81 27.2 66 19.1 61 61 WSW 8 13 29.71 1006 10 16 N/A
4:55 pm 16:55 Partly Cloudy 82 28 67 19.3 59 59 WSW 9 15 29.68 1005 10 16 N/A
5:15 pm 17:15 Partly Cloudy 82 28 65 18.3 56 56 WSW 14 22 29.68 1005 10 16 N/A
5:35 pm 17:35 Partly Cloudy 83 28.4 64 17.6 52 52 WSW 12 19 29.68 1005 10 16 N/A
5:55 pm 17:55 Sunny 83 28.6 64 17.9 52 52 WSW 14 22 29.68 1005 10 16 N/A
6:15 pm 18:15 Mostly Cloudy 81 27.3 65 18.3 58 58 WSW 12 19 29.71 1006 10 16 N/A
6:35 pm 18:35 Partly Cloudy 81 27.2 65 18.4 59 59 SW 13 20 29.71 1006 10 16 N/A
6:55 pm 18:55 Sunny 81 27.2 65 18.4 59 59 SW 8 13 29.68 1005 10 16 N/A
7:15 pm 19:15 Partly Cloudy 81 27.2 65 18.5 59 59 SW 10 17 29.71 1006 10 16 N/A
7:35 pm 19:35 Mostly Cloudy 81 27 65 18.3 59 59 SW 6 9 29.71 1006 10 16 N/A
7:55 pm 19:55 Cloudy 80 26.5 65 18.2 60 60 SW 7 11 29.71 1006 10 16 N/A
8:15 pm 20:15 Cloudy 79 26.2 65 18.6 63 63 WNW 8 13 29.71 1006 10 16 N/A
8:35 pm 20:35 Mostly Cloudy 77 25.1 66 19 69 69 W 6 9 29.77 1008 10 16 N/A
8:55 pm 20:55 Mostly Cloudy 77 25 66 18.9 69 69 W 14 22 29.77 1008 10 16 N/A
9:15 pm 21:15 Cloudy 74 23.6 63 17.3 68 68 WNW 12 19 29.77 1008 10 16 N/A
9:35 pm 21:35 Cloudy with Heavy Rain 73 23 65 18.4 75 75 WNW 12 19 29.80 1009 7 11 N/A
9:55 pm 21:55 Cloudy with Light Rain 69 20.8 63 17.2 80 80 SW 3 6 29.80 1009 7 11 N/A
10:15 pm 22:15 Cloudy 69 20.8 63 17.4 81 81 N N/A 29.80 1009 10 16 N/A
10:35 pm 22:35 Cloudy with Drizzle 69 20.8 64 17.5 82 82 S 5 7 29.80 1009 10 16 N/A
10:55 pm 22:55 Cloudy 70 21.2 64 18 82 82 SSW 3 6 29.80 1009 10 16 N/A

Powered by AerisWeather